�N����,�����b,�ŏ������i�x�j,���ϕ����i�x�j,�ő啗���i�x�j,�ŏ�����(m/s),���ϕ���(m/s),�ő啗��(m/s),�C��(���j,���x�i���j,�C��(hPa),�~�J��(mm),�~�J����(�b�j,�~�J���x(mm/h),�~�Ђ傤��(hit/���u),�~�Ђ傤����(�b�j,�~�Ђ傤���x(hit/���uh),�q�[�^���x(���j,�q�[�^�[�d���iV),�d���d���iV),�Q�Ɠd���iV)
2009/08/01,00:00:01,310,127,304,0.1,4.6,9.4,27.6,77.7,999.8,0.00,0,0.0,0.0,0,0.0,26.8,0.0,11.7,3.470
2009/08/01,00:10:01,310,127,306,0.0,4.6,9.3,27.5,77.9,999.7,0.00,0,0.0,0.0,0,0.0,26.6,0.0,11.8,3.470
2009/08/01,00:20:01,310,129,306,0.0,4.6,9.6,27.5,77.8,999.6,0.00,0,0.0,0.0,0,0.0,26.8,0.0,11.6,3.470
2009/08/01,00:30:01,311,127,298,0.1,4.5,11.4,27.4,78.4,999.6,0.00,0,0.0,0.0,0,0.0,26.6,0.0,11.7,3.470
2009/08/01,00:40:01,307,127,291,0.1,4.8,9.4,27.4,78.9,999.4,0.00,0,0.0,0.0,0,0.0,26.4,0.0,11.7,3.469
2009/08/01,00:50:01,309,127,290,0.1,4.6,9.8,27.4,79.4,999.5,0.00,0,0.0,0.0,0,0.0,26.6,0.0,11.7,3.469
2009/08/01,01:00:01,312,130,285,0.0,4.7,9.4,27.4,79.3,999.4,0.00,0,0.0,0.0,0,0.0,26.6,0.0,11.7,3.470
2009/08/01,01:10:01,316,126,305,0.0,4.2,11.2,27.5,79.3,999.2,0.00,0,0.0,0.0,0,0.0,26.6,0.0,11.8,3.469
2009/08/01,01:20:01,306,125,302,0.1,4.8,10.3,27.4,79.4,999.2,0.00,0,0.0,0.0,0,0.0,26.6,0.0,11.9,3.470
2009/08/01,01:30:01,315,130,309,0.1,4.8,9.9,27.4,79.5,999.1,0.00,0,0.0,0.0,0,0.0,26.6,0.0,11.9,3.469
2009/08/01,01:40:01,313,132,309,0.0,5.0,10.0,27.4,79.7,999.1,0.00,0,0.0,0.0,0,0.0,26.6,0.0,11.7,3.470
2009/08/01,01:50:01,318,126,305,0.1,4.6,9.2,27.4,79.2,999.0,0.00,0,0.0,0.0,0,0.0,26.3,0.0,11.7,3.469
2009/08/01,02:00:01,313,128,294,0.0,4.8,9.2,27.4,79.7,999.0,0.00,0,0.0,0.0,0,0.0,26.4,0.0,11.8,3.469
2009/08/01,02:10:01,315,126,306,0.1,4.6,9.8,27.4,79.2,998.9,0.00,0,0.0,0.0,0,0.0,26.8,0.0,11.7,3.469
2009/08/01,02:20:01,309,127,307,0.0,4.8,9.7,27.3,79.6,998.8,0.00,0,0.0,0.0,0,0.0,26.6,0.0,11.7,3.469
2009/08/01,02:30:01,317,129,302,0.1,5.0,9.4,27.3,80.3,998.7,0.00,0,0.0,0.0,0,0.0,26.4,0.0,11.8,3.470
2009/08/01,02:40:01,317,123,300,0.1,3.8,9.2,27.4,79.3,998.5,0.00,0,0.0,0.0,0,0.0,26.3,0.0,11.6,3.470
2009/08/01,02:50:01,306,126,302,0.1,4.4,10.6,27.4,79.2,998.4,0.00,0,0.0,0.0,0,0.0,26.6,0.0,11.7,3.470
2009/08/01,03:00:01,310,125,301,0.1,4.4,9.3,27.3,79.3,998.3,0.00,0,0.0,0.0,0,0.0,26.3,0.0,11.8,3.469
2009/08/01,03:10:01,321,132,309,0.0,4.6,9.2,27.4,79.4,998.2,0.00,0,0.0,0.0,0,0.0,26.4,0.0,11.8,3.470
2009/08/01,03:20:01,313,125,304,0.1,4.0,10.0,27.4,79.4,998.2,0.00,0,0.0,0.0,0,0.0,26.6,0.0,11.7,3.470
2009/08/01,03:30:01,323,127,299,0.0,4.3,9.8,27.4,79.4,998.2,0.00,0,0.0,0.0,0,0.0,26.4,0.0,11.7,3.470
2009/08/01,03:40:01,307,126,303,0.1,4.2,9.3,27.4,78.9,998.0,0.00,0,0.0,0.0,0,0.0,26.6,0.0,11.7,3.468
2009/08/01,03:50:01,311,126,304,0.0,4.2,10.1,27.4,79.4,998.0,0.00,0,0.0,0.0,0,0.0,26.6,0.0,11.7,3.470
2009/08/01,04:00:01,309,126,297,0.1,4.3,10.1,27.4,78.9,997.7,0.00,0,0.0,0.0,0,0.0,26.6,0.0,11.6,3.469
2009/08/01,04:10:01,308,125,303,0.1,4.5,9.6,27.3,79.0,997.7,0.00,0,0.0,0.0,0,0.0,26.4,0.0,11.9,3.470
2009/08/01,04:20:01,308,125,305,0.1,4.2,11.5,27.4,79.6,997.8,0.00,0,0.0,0.0,0,0.0,26.4,0.0,11.7,3.470
2009/08/01,04:30:01,311,128,302,0.0,4.4,9.6,27.4,79.3,997.8,0.00,0,0.0,0.0,0,0.0,26.6,0.0,11.7,3.469
2009/08/01,04:40:01,309,129,307,0.1,4.3,10.5,27.4,79.5,997.8,0.00,0,0.0,0.0,0,0.0,26.8,0.0,11.8,3.468
2009/08/01,04:50:01,308,124,303,0.0,4.3,10.2,27.4,79.2,997.8,0.00,0,0.0,0.0,0,0.0,26.4,0.0,11.8,3.472
2009/08/01,05:00:01,313,132,309,0.1,4.8,10.4,27.3,79.1,997.6,0.00,0,0.0,0.0,0,0.0,26.9,0.0,11.8,3.469
2009/08/01,05:10:01,309,125,306,0.1,4.5,10.1,27.4,79.5,997.5,0.00,0,0.0,0.0,0,0.0,26.4,0.0,11.7,3.470
2009/08/01,05:20:01,312,126,296,0.0,4.1,9.5,27.4,80.1,997.5,0.00,0,0.0,0.0,0,0.0,26.8,0.0,11.8,3.472
2009/08/01,05:30:01,303,120,287,0.1,3.8,10.4,27.4,79.9,997.6,0.00,0,0.0,0.0,0,0.0,26.4,0.0,11.7,3.472
2009/08/01,05:40:01,305,121,301,0.1,3.7,10.1,27.3,79.9,997.6,0.00,0,0.0,0.0,0,0.0,26.4,0.0,11.6,3.470
2009/08/01,05:50:01,310,129,308,0.1,4.3,12.2,27.3,79.6,997.8,0.00,0,0.0,0.0,0,0.0,26.4,0.0,11.8,3.469
2009/08/01,06:00:01,309,129,307,0.1,4.5,9.5,27.3,79.6,997.8,0.00,0,0.0,0.0,0,0.0,26.4,0.0,11.8,3.469
2009/08/01,06:10:01,310,129,307,0.1,4.2,10.0,27.4,79.6,997.9,0.00,0,0.0,0.0,0,0.0,26.8,0.0,11.6,3.469
2009/08/01,06:20:01,318,130,310,0.1,4.2,9.6,27.5,79.6,997.9,0.00,0,0.0,0.0,0,0.0,26.9,0.0,11.7,3.469
2009/08/01,06:30:01,314,137,313,0.0,4.3,10.4,27.7,78.3,997.9,0.00,0,0.0,0.0,0,0.0,27.4,0.0,11.8,3.469
2009/08/01,06:40:01,324,141,320,0.1,4.4,10.5,27.7,78.4,998.0,0.00,0,0.0,0.0,0,0.0,27.6,0.0,12.0,3.468
2009/08/01,06:50:01,323,144,321,0.2,4.3,10.4,27.9,77.9,998.0,0.00,0,0.0,0.0,0,0.0,27.9,0.0,11.9,3.469
2009/08/01,07:00:01,325,144,320,0.1,4.1,11.4,27.9,77.8,998.1,0.00,0,0.0,0.0,0,0.0,28.1,0.0,11.8,3.469
2009/08/01,07:10:01,312,129,295,0.1,3.7,10.2,28.1,76.0,997.9,0.00,0,0.0,0.0,0,0.0,28.6,0.0,11.9,3.469
2009/08/01,07:20:01,309,126,305,0.1,3.8,12.3,28.5,75.5,998.0,0.00,0,0.0,0.0,0,0.0,29.3,0.0,11.7,3.469
2009/08/01,07:30:01,313,133,312,0.1,4.1,10.6,28.7,74.8,998.2,0.00,0,0.0,0.0,0,0.0,30.0,0.0,11.7,3.468
2009/08/01,07:40:01,307,124,301,0.2,3.8,10.3,28.6,74.6,998.0,0.00,0,0.0,0.0,0,0.0,30.1,0.0,11.6,3.469
2009/08/01,07:50:01,310,119,298,0.2,4.0,11.5,28.8,74.5,997.9,0.00,0,0.0,0.0,0,0.0,30.3,0.0,11.7,3.469
2009/08/01,08:00:01,300,119,299,0.0,4.3,12.0,28.7,74.6,997.9,0.00,0,0.0,0.0,0,0.0,30.0,0.0,11.7,3.468
2009/08/01,08:10:01,307,117,284,0.0,4.0,11.1,28.9,74.1,997.9,0.00,0,0.0,0.0,0,0.0,30.1,0.0,11.8,3.469
2009/08/01,08:20:01,304,118,298,0.2,4.5,12.5,29.2,73.1,997.9,0.00,0,0.0,0.0,0,0.0,31.1,0.0,11.8,3.468
2009/08/01,08:30:01,303,122,297,0.1,4.1,11.3,29.1,73.2,997.9,0.00,0,0.0,0.0,0,0.0,30.8,0.0,11.6,3.468
2009/08/01,08:40:01,316,133,298,0.0,4.2,11.5,29.0,74.2,998.0,0.00,0,0.0,0.0,0,0.0,30.3,0.0,11.7,3.469
2009/08/01,08:50:01,319,136,316,0.1,4.2,10.5,29.1,74.2,997.9,0.00,0,0.0,0.0,0,0.0,30.5,0.0,11.7,3.468
2009/08/01,09:00:01,310,127,301,0.0,4.1,10.8,29.2,73.1,998.1,0.00,0,0.0,0.0,0,0.0,31.0,0.0,11.6,3.468
2009/08/01,09:10:01,316,133,309,0.1,4.5,11.4,29.3,73.4,998.1,0.00,0,0.0,0.0,0,0.0,31.1,0.0,11.7,3.468
2009/08/01,09:20:01,312,127,307,0.3,4.7,12.1,29.5,73.1,998.1,0.00,0,0.0,0.0,0,0.0,32.0,0.0,11.8,3.468
2009/08/01,09:30:01,314,130,308,0.1,5.0,11.6,29.5,73.2,998.3,0.00,0,0.0,0.0,0,0.0,31.8,0.0,12.0,3.468
2009/08/01,09:40:01,315,131,312,0.2,4.7,11.7,29.5,73.4,998.4,0.00,0,0.0,0.0,0,0.0,31.5,0.0,11.8,3.468
2009/08/01,09:50:01,303,120,300,0.1,5.2,12.0,30.1,71.5,998.4,0.00,0,0.0,0.0,0,0.0,33.0,0.0,11.7,3.468
2009/08/01,10:00:01,300,119,294,0.1,5.0,12.4,29.8,71.7,998.5,0.00,0,0.0,0.0,0,0.0,32.5,0.0,11.8,3.468
2009/08/01,10:10:01,306,120,300,0.1,5.1,12.5,30.0,71.4,998.6,0.00,0,0.0,0.0,0,0.0,32.6,0.0,11.6,3.468
2009/08/01,10:20:01,314,120,296,0.1,4.9,12.0,30.8,70.0,998.7,0.00,0,0.0,0.0,0,0.0,34.0,0.0,11.7,3.467
2009/08/01,10:30:01,300,119,299,0.1,4.7,10.9,30.5,69.4,998.8,0.00,0,0.0,0.0,0,0.0,34.2,0.0,11.7,3.470
2009/08/01,10:40:01,303,124,302,0.1,4.9,11.3,30.7,70.2,998.7,0.00,0,0.0,0.0,0,0.0,34.0,0.0,11.8,3.468
2009/08/01,10:50:01,304,122,302,0.1,5.0,11.0,30.5,70.8,998.8,0.00,0,0.0,0.0,0,0.0,33.7,0.0,11.7,3.468
2009/08/01,11:00:01,304,120,297,0.0,4.2,10.8,30.6,69.3,998.7,0.00,0,0.0,0.0,0,0.0,34.3,0.0,11.7,3.468
2009/08/01,11:10:01,301,118,293,0.0,4.2,10.8,30.9,69.4,998.7,0.00,0,0.0,0.0,0,0.0,34.8,0.0,11.6,3.467
2009/08/01,11:20:01,313,123,303,0.1,4.8,11.7,31.1,69.6,998.6,0.00,0,0.0,0.0,0,0.0,34.7,0.0,11.8,3.467
2009/08/01,11:30:01,311,131,308,0.1,4.8,12.0,30.6,70.8,998.5,0.00,0,0.0,0.0,0,0.0,33.8,0.0,11.8,3.465
2009/08/01,11:40:01,311,127,300,0.1,4.6,11.4,31.2,69.7,998.5,0.00,0,0.0,0.0,0,0.0,34.8,0.0,12.0,3.467
2009/08/01,11:50:01,307,123,304,0.0,5.4,12.4,31.3,68.5,998.4,0.00,0,0.0,0.0,0,0.0,35.0,0.0,11.8,3.465
2009/08/01,12:00:01,307,128,306,0.1,5.4,12.7,31.6,67.8,998.3,0.00,0,0.0,0.0,0,0.0,35.3,0.0,11.9,3.467
2009/08/01,12:10:01,302,117,300,0.1,5.6,14.4,31.0,69.4,998.3,0.00,0,0.0,0.0,0,0.0,33.8,0.0,11.6,3.467
2009/08/01,12:20:01,296,115,294,0.1,5.7,14.0,31.2,69.1,998.1,0.00,0,0.0,0.0,0,0.0,34.0,0.0,11.8,3.467
2009/08/01,12:30:01,304,123,302,0.1,5.3,12.5,31.0,68.6,998.1,0.00,0,0.0,0.0,0,0.0,33.8,0.0,11.7,3.468
2009/08/01,12:40:01,307,129,303,0.2,5.1,12.4,31.1,68.2,998.1,0.00,0,0.0,0.0,0,0.0,34.3,0.0,11.7,3.468
2009/08/01,12:50:01,307,125,297,0.2,5.1,13.3,30.8,71.7,998.0,0.00,0,0.0,0.0,0,0.0,33.7,0.0,11.7,3.467
2009/08/01,13:00:01,311,128,309,0.1,4.7,11.6,31.1,69.4,997.9,0.00,0,0.0,0.0,0,0.0,34.3,0.0,11.7,3.468
2009/08/01,13:10:01,305,123,303,0.1,5.0,13.2,30.4,72.5,997.8,0.00,0,0.0,0.0,0,0.0,33.3,0.0,11.6,3.467
2009/08/01,13:20:01,298,119,295,0.1,5.1,13.5,30.8,72.3,997.6,0.00,0,0.0,0.0,0,0.0,33.5,0.0,11.7,3.468
2009/08/01,13:30:01,309,127,307,0.1,4.8,11.8,31.0,71.2,997.6,0.00,0,0.0,0.0,0,0.0,33.8,0.0,11.8,3.468
2009/08/01,13:40:01,312,130,311,0.3,4.7,11.4,30.8,69.9,997.5,0.00,0,0.0,0.0,0,0.0,33.8,0.0,11.7,3.467
2009/08/01,13:50:01,309,128,308,0.1,4.1,11.5,31.0,70.4,997.2,0.00,0,0.0,0.0,0,0.0,34.5,0.0,11.8,3.467
2009/08/01,14:00:01,311,126,305,0.0,4.3,11.4,31.2,69.9,997.0,0.00,0,0.0,0.0,0,0.0,35.2,0.0,11.7,3.467
2009/08/01,14:10:01,309,128,306,0.2,4.3,12.0,31.2,68.9,996.8,0.00,0,0.0,0.0,0,0.0,34.3,0.0,11.8,3.467
2009/08/01,14:20:01,306,125,302,0.1,4.5,12.4,31.0,68.9,996.9,0.00,0,0.0,0.0,0,0.0,34.3,0.0,11.8,3.467
2009/08/01,14:30:01,311,130,309,0.0,4.4,11.3,31.0,69.6,996.8,0.00,0,0.0,0.0,0,0.0,34.3,0.0,11.8,3.468
2009/08/01,14:40:01,311,128,309,0.1,4.6,12.7,30.9,70.2,996.7,0.00,0,0.0,0.0,0,0.0,34.3,0.0,11.7,3.470
2009/08/01,14:50:01,305,125,303,0.1,4.6,11.4,30.8,69.9,996.7,0.00,0,0.0,0.0,0,0.0,34.2,0.0,11.8,3.467
2009/08/01,15:00:01,307,126,302,0.1,4.3,12.3,30.8,70.7,996.7,0.00,0,0.0,0.0,0,0.0,33.8,0.0,11.8,3.468
2009/08/01,15:10:01,306,125,305,0.1,4.6,12.4,30.4,72.7,996.7,0.00,0,0.0,0.0,0,0.0,32.8,0.0,11.7,3.469
2009/08/01,15:20:01,301,121,301,0.1,4.6,11.4,30.1,73.8,996.7,0.00,0,0.0,0.0,0,0.0,32.3,0.0,12.0,3.468
2009/08/01,15:30:01,306,125,299,0.1,4.6,12.2,30.4,73.3,996.7,0.00,0,0.0,0.0,0,0.0,32.6,0.0,11.7,3.468
2009/08/01,15:40:01,311,128,305,0.1,4.5,12.4,29.8,75.3,996.6,0.00,0,0.0,0.0,0,0.0,31.8,0.0,11.8,3.469
2009/08/01,15:50:01,309,125,293,0.1,4.1,12.5,29.9,75.0,996.4,0.00,0,0.0,0.0,0,0.0,31.6,0.0,12.0,3.468
2009/08/01,16:00:01,312,131,310,0.1,4.7,14.0,30.0,74.9,996.4,0.00,0,0.0,0.0,0,0.0,31.6,0.0,11.9,3.468
2009/08/01,16:10:01,309,124,304,0.1,4.9,10.9,29.9,75.8,996.5,0.00,0,0.0,0.0,0,0.0,31.6,0.0,11.9,3.468
2009/08/01,16:20:01,311,125,296,0.0,4.4,10.8,29.8,76.8,996.4,0.00,0,0.0,0.0,0,0.0,31.0,0.0,11.6,3.469
2009/08/01,16:30:01,315,132,311,0.1,4.4,11.9,29.9,76.2,996.5,0.00,0,0.0,0.0,0,0.0,31.1,0.0,11.7,3.469
2009/08/01,16:40:01,311,128,309,0.1,4.8,12.3,30.1,75.2,996.5,0.00,0,0.0,0.0,0,0.0,31.8,0.0,12.0,3.467
2009/08/01,16:50:01,310,130,304,0.0,4.5,10.8,29.5,77.4,996.5,0.00,0,0.0,0.0,0,0.0,30.6,0.0,11.7,3.468
2009/08/01,17:00:01,300,119,300,0.1,5.1,11.9,30.3,75.3,996.5,0.00,0,0.0,0.0,0,0.0,31.8,0.0,12.0,3.470
2009/08/01,17:10:01,317,128,308,0.0,4.3,10.8,29.7,78.0,996.5,0.00,0,0.0,0.0,0,0.0,30.8,0.0,11.8,3.469
2009/08/01,17:20:01,309,129,301,0.2,4.4,10.9,29.9,76.9,996.5,0.00,0,0.0,0.0,0,0.0,31.3,0.0,11.8,3.469
2009/08/01,17:30:01,308,127,306,0.0,4.5,11.9,30.2,75.5,996.5,0.00,0,0.0,0.0,0,0.0,32.0,0.0,11.9,3.469
2009/08/01,17:40:01,309,128,304,0.1,4.5,12.7,29.9,75.9,996.5,0.00,0,0.0,0.0,0,0.0,31.6,0.0,11.8,3.469
2009/08/01,17:50:01,306,122,305,0.1,4.6,11.5,29.9,76.9,996.5,0.00,0,0.0,0.0,0,0.0,31.1,0.0,11.7,3.469
2009/08/01,18:00:01,319,127,300,0.1,4.2,10.8,29.6,77.4,996.5,0.00,0,0.0,0.0,0,0.0,30.6,0.0,11.6,3.468
2009/08/01,18:10:01,315,130,309,0.0,4.4,10.8,29.5,78.0,996.5,0.00,0,0.0,0.0,0,0.0,30.5,0.0,11.7,3.469
2009/08/01,18:20:01,304,123,301,0.0,4.3,10.3,29.7,77.7,996.6,0.00,0,0.0,0.0,0,0.0,30.6,0.0,11.7,3.469
2009/08/01,18:30:01,313,134,308,0.1,4.6,11.5,29.2,78.8,996.5,0.00,0,0.0,0.0,0,0.0,29.8,0.0,11.7,3.470
2009/08/01,18:40:01,328,149,326,0.0,4.6,11.0,29.0,80.3,996.6,0.00,0,0.0,0.0,0,0.0,29.0,0.0,11.7,3.469
2009/08/01,18:50:01,327,148,326,0.1,4.5,11.3,28.9,81.1,996.6,0.00,0,0.0,0.0,0,0.0,28.6,0.0,12.0,3.469
2009/08/01,19:00:01,334,154,334,0.0,4.5,10.5,28.9,81.2,996.5,0.00,0,0.0,0.0,0,0.0,28.6,0.0,12.0,3.469
2009/08/01,19:10:01,331,149,330,0.0,4.2,11.3,28.8,81.6,996.6,0.00,0,0.0,0.0,0,0.0,28.6,0.0,11.9,3.469
2009/08/01,19:20:01,328,149,327,0.1,4.6,11.1,28.7,82.0,996.7,0.00,0,0.0,0.0,0,0.0,28.1,0.0,11.9,3.469
2009/08/01,19:30:01,326,144,325,0.1,4.5,11.8,28.6,82.3,996.7,0.00,0,0.0,0.0,0,0.0,27.9,0.0,11.8,3.469
2009/08/01,19:40:01,327,147,326,0.1,4.7,11.2,28.7,82.6,996.9,0.00,0,0.0,0.0,0,0.0,27.9,0.0,12.0,3.469
2009/08/01,19:50:01,321,138,319,0.0,4.4,11.7,28.6,82.6,997.0,0.00,0,0.0,0.0,0,0.0,27.9,0.0,11.8,3.470
2009/08/01,20:00:01,321,140,319,0.1,4.4,10.8,28.5,82.8,997.1,0.00,0,0.0,0.0,0,0.0,27.9,0.0,11.8,3.468
2009/08/01,20:10:01,321,141,318,0.2,4.3,10.4,28.5,83.2,997.2,0.00,0,0.0,0.0,0,0.0,27.9,0.0,12.1,3.469
2009/08/01,20:20:01,322,141,321,0.1,4.1,10.3,28.6,82.7,997.3,0.00,0,0.0,0.0,0,0.0,27.9,0.0,11.8,3.468
2009/08/01,20:30:01,319,138,313,0.1,4.2,11.3,28.6,83.0,997.2,0.00,0,0.0,0.0,0,0.0,27.9,0.0,11.8,3.469
2009/08/01,20:40:01,315,133,309,0.1,4.2,10.4,28.6,82.9,997.2,0.00,0,0.0,0.0,0,0.0,27.8,0.0,11.9,3.469
2009/08/01,20:50:01,314,133,310,0.1,4.1,11.3,28.6,83.2,997.4,0.00,0,0.0,0.0,0,0.0,28.1,0.0,11.8,3.469
2009/08/01,21:00:01,317,136,315,0.0,4.0,11.0,28.7,83.2,997.6,0.00,0,0.0,0.0,0,0.0,28.1,0.0,11.9,3.472
2009/08/01,21:10:01,316,135,311,0.0,3.8,9.7,28.6,82.3,997.7,0.00,0,0.0,0.0,0,0.0,28.3,0.0,12.0,3.469
2009/08/01,21:20:01,309,124,296,0.1,3.2,10.2,28.7,81.5,997.8,0.00,0,0.0,0.0,0,0.0,27.9,0.0,12.0,3.468
2009/08/01,21:30:01,309,130,292,0.0,3.5,9.9,28.7,81.4,998.0,0.00,0,0.0,0.0,0,0.0,28.1,0.0,11.9,3.469
2009/08/01,21:40:01,314,129,303,0.1,3.5,10.3,28.7,82.0,998.1,0.00,0,0.0,0.0,0,0.0,28.1,0.0,11.8,3.469
2009/08/01,21:50:01,313,130,301,0.1,3.4,10.8,28.7,82.1,998.1,0.00,0,0.0,0.0,0,0.0,27.9,0.0,11.8,3.469
2009/08/01,22:00:01,316,135,313,0.1,3.8,10.4,28.7,82.9,998.0,0.00,0,0.0,0.0,0,0.0,27.9,0.0,11.8,3.468
2009/08/01,22:10:01,317,135,307,0.1,3.5,9.6,28.6,82.9,998.1,0.00,0,0.0,0.0,0,0.0,27.9,0.0,12.0,3.470
2009/08/01,22:20:01,311,131,309,0.1,3.5,9.9,28.6,82.4,998.1,0.00,0,0.0,0.0,0,0.0,27.8,0.0,11.9,3.469
2009/08/01,22:30:01,321,134,315,0.1,3.6,9.3,28.6,82.9,998.0,0.00,0,0.0,0.0,0,0.0,27.9,0.0,11.7,3.469
2009/08/01,22:40:01,318,137,309,0.1,3.7,9.6,28.6,82.5,997.9,0.00,0,0.0,0.0,0,0.0,27.9,0.0,12.0,3.469
2009/08/01,22:50:01,317,136,315,0.1,3.7,9.8,28.6,82.7,997.9,0.00,0,0.0,0.0,0,0.0,27.9,0.0,12.0,3.468
2009/08/01,23:00:01,321,139,317,0.1,3.9,10.2,28.6,82.9,997.9,0.00,0,0.0,0.0,0,0.0,27.8,0.0,11.9,3.469
2009/08/01,23:10:01,320,140,319,0.1,3.9,9.9,28.6,83.6,997.8,0.00,0,0.0,0.0,0,0.0,27.9,0.0,11.8,3.469
2009/08/01,23:20:01,323,143,322,0.1,4.1,9.8,28.6,84.1,997.7,0.00,0,0.0,0.0,0,0.0,28.1,0.0,11.9,3.469
2009/08/01,23:30:01,317,133,302,0.1,3.9,11.0,28.2,83.8,997.9,1.50,150,33.1,0.0,0,0.0,27.8,0.0,11.9,3.472
2009/08/01,23:40:01,298,100,278,0.1,5.6,13.0,27.2,85.8,997.8,0.47,280,0.0,0.0,0,0.0,26.6,0.0,12.0,3.470
2009/08/01,23:50:01,260,73,258,0.1,6.7,13.3,27.0,87.5,997.6,0.08,140,2.6,0.0,0,0.0,25.9,0.0,11.8,3.469
2009/08/02,00:00:01,267,86,263,0.1,4.4,13.0,26.9,88.5,997.6,1.99,590,8.1,0.0,0,0.0,25.6,0.0,11.7,3.470
2009/08/02,00:10:01,306,93,265,0.1,3.9,11.1,27.5,89.5,997.5,2.00,590,12.0,0.0,0,0.0,26.3,0.0,11.9,3.470
2009/08/02,00:20:01,312,101,279,0.1,5.2,9.5,27.7,89.3,997.5,1.50,600,2.1,0.0,0,0.0,26.6,0.0,11.6,3.470
2009/08/02,00:30:01,279,101,269,0.1,4.7,11.8,27.8,89.3,997.7,0.04,150,0.0,0.0,0,0.0,26.9,0.0,11.7,3.470
2009/08/02,00:40:01,295,93,267,0.1,3.8,10.4,27.1,87.6,997.5,0.95,320,0.0,0.0,0,0.0,26.4,0.0,11.7,3.472
2009/08/02,00:50:01,312,116,209,0.1,4.3,10.6,27.2,88.4,997.4,0.00,0,0.0,0.0,0,0.0,26.3,0.0,11.9,3.469
2009/08/02,01:00:01,288,102,287,0.0,4.0,9.1,27.4,88.3,997.5,0.00,0,0.0,0.0,0,0.0,26.4,0.0,11.6,3.469
2009/08/02,01:10:01,262,82,255,0.0,3.8,8.0,27.3,88.3,997.3,0.06,130,1.2,0.0,0,0.0,26.6,0.0,12.0,3.469
2009/08/02,01:20:01,294,64,238,0.0,3.8,8.1,27.4,88.4,997.3,0.01,130,0.0,0.0,0,0.0,26.4,0.0,12.0,3.470
2009/08/02,01:30:01,267,74,211,0.1,4.5,8.0,27.5,88.5,997.1,1.00,200,0.0,0.0,0,0.0,26.6,0.0,11.7,3.469
2009/08/02,01:40:01,323,90,242,0.1,2.7,7.3,27.4,88.3,996.9,0.00,10,0.0,0.0,0,0.0,26.3,0.0,11.7,3.470
2009/08/02,01:50:01,288,86,211,0.0,3.0,7.8,27.4,88.7,997.0,0.00,0,0.0,0.0,0,0.0,26.4,0.0,11.7,3.470
2009/08/02,02:00:01,272,70,208,0.0,5.3,7.8,27.4,88.7,996.8,0.81,370,3.8,0.0,0,0.0,26.8,0.0,11.7,3.470
2009/08/02,02:10:01,320,101,270,0.1,3.6,8.7,27.5,89.1,996.6,0.49,260,0.0,0.0,0,0.0,26.4,0.0,11.7,3.470
2009/08/02,02:20:01,320,108,267,0.1,2.8,8.4,27.6,89.2,996.5,0.00,0,0.0,0.0,0,0.0,26.6,0.0,11.7,3.469
2009/08/02,02:30:01,312,110,211,0.2,2.7,8.7,27.7,89.5,996.4,0.00,0,0.0,0.0,0,0.0,26.8,0.0,11.7,3.470
2009/08/02,02:40:01,320,114,267,0.1,2.2,9.0,27.9,89.5,996.5,0.00,0,0.0,0.0,0,0.0,26.9,0.0,11.7,3.469
2009/08/02,02:50:01,317,113,270,0.0,2.6,8.3,27.9,89.2,996.5,0.01,80,0.3,0.0,0,0.0,27.1,0.0,11.7,3.469
2009/08/02,03:00:01,299,117,278,0.1,4.0,8.7,27.6,88.3,996.4,0.03,60,0.0,0.0,0,0.0,26.8,0.0,11.7,3.469
2009/08/02,03:10:01,323,116,281,0.1,2.1,8.7,27.5,88.0,996.3,0.00,0,0.0,0.0,0,0.0,26.8,0.0,11.7,3.470
2009/08/02,03:20:01,326,118,207,0.2,2.1,8.1,27.5,88.4,996.1,0.00,0,0.0,0.0,0,0.0,26.6,0.0,11.7,3.469
2009/08/02,03:30:01,324,115,282,0.1,2.1,8.5,27.5,88.5,996.0,0.00,0,0.0,0.0,0,0.0,26.4,0.0,11.8,3.470
2009/08/02,03:40:01,323,116,208,0.1,2.2,7.9,27.6,88.8,996.0,0.00,0,0.0,0.0,0,0.0,26.6,0.0,11.7,3.470
2009/08/02,03:50:01,323,118,279,0.0,1.8,8.4,27.6,88.7,995.9,0.00,0,0.0,0.0,0,0.0,26.8,0.0,11.8,3.469
2009/08/02,04:00:01,324,115,208,0.1,2.1,8.0,27.7,89.0,995.9,0.00,0,0.0,0.0,0,0.0,26.8,0.0,11.7,3.470
2009/08/02,04:10:01,304,106,276,0.1,2.4,7.9,27.8,88.9,995.7,0.00,0,0.0,0.0,0,0.0,26.9,0.0,11.6,3.470
2009/08/02,04:20:01,317,97,270,0.0,3.0,7.8,27.8,89.2,995.8,0.00,0,0.0,0.0,0,0.0,26.9,0.0,11.6,3.469
2009/08/02,04:30:01,288,85,210,0.1,4.1,8.6,27.9,89.1,995.7,0.00,0,0.0,0.0,0,0.0,26.9,0.0,11.6,3.469
2009/08/02,04:40:01,321,94,269,0.1,3.2,8.9,27.8,88.8,995.7,0.00,0,0.0,0.0,0,0.0,27.1,0.0,11.6,3.470
2009/08/02,04:50:01,314,97,206,0.1,2.9,8.5,27.8,88.8,995.6,0.00,0,0.0,0.0,0,0.0,27.1,0.0,11.8,3.469
2009/08/02,05:00:01,322,111,206,0.1,1.7,7.8,27.8,88.8,995.6,0.00,0,0.0,0.0,0,0.0,27.1,0.0,11.8,3.469
2009/08/02,05:10:01,321,80,210,0.0,3.0,9.9,27.9,88.6,995.5,0.00,0,0.0,0.0,0,0.0,27.3,0.0,11.8,3.470
2009/08/02,05:20:01,253,55,211,0.0,5.0,10.1,27.9,88.3,995.4,0.00,0,0.0,0.0,0,0.0,27.1,0.0,11.7,3.469
2009/08/02,05:30:01,290,54,209,0.1,5.5,10.1,27.9,88.2,995.3,0.00,0,0.0,0.0,0,0.0,27.1,0.0,11.6,3.470
2009/08/02,05:40:01,266,53,221,0.1,5.6,9.5,28.0,88.3,995.2,0.00,0,0.0,0.0,0,0.0,27.1,0.0,11.6,3.469
2009/08/02,05:50:01,269,52,217,0.1,5.7,9.4,28.0,88.5,995.3,0.00,0,0.0,0.0,0,0.0,27.1,0.0,11.7,3.469
2009/08/02,06:00:01,257,55,219,0.1,5.7,9.7,28.1,88.4,995.2,0.00,0,0.0,0.0,0,0.0,27.3,0.0,11.6,3.469
2009/08/02,06:10:01,295,67,205,0.1,5.0,10.0,28.1,88.4,995.2,0.00,0,0.0,0.0,0,0.0,27.4,0.0,11.6,3.469
2009/08/02,06:20:01,295,63,214,0.1,5.2,10.2,28.1,88.5,995.3,0.00,0,0.0,0.0,0,0.0,27.4,0.0,11.6,3.469
2009/08/02,06:30:01,279,52,213,0.1,6.0,9.6,28.1,88.5,995.4,0.00,0,0.0,0.0,0,0.0,27.6,0.0,11.6,3.470
2009/08/02,06:40:01,271,52,212,0.1,5.9,10.2,28.3,88.0,995.4,0.00,0,0.0,0.0,0,0.0,28.3,0.0,11.6,3.468
2009/08/02,06:50:01,270,53,214,0.1,5.8,9.5,28.6,87.2,995.6,0.00,0,0.0,0.0,0,0.0,29.3,0.0,12.0,3.468
2009/08/02,07:00:01,256,71,211,0.1,5.3,10.0,28.8,86.4,995.6,0.00,0,0.0,0.0,0,0.0,29.5,0.0,11.8,3.468
2009/08/02,07:10:01,266,88,213,0.1,4.3,10.1,28.7,87.0,995.7,0.00,0,0.0,0.0,0,0.0,29.0,0.0,11.8,3.469
2009/08/02,07:20:01,285,102,280,0.1,4.0,10.3,29.0,86.2,995.7,0.00,0,0.0,0.0,0,0.0,30.0,0.0,11.8,3.469
2009/08/02,07:30:01,293,113,277,0.2,3.5,10.0,29.2,85.4,995.7,0.00,0,0.0,0.0,0,0.0,30.6,0.0,11.8,3.468
2009/08/02,07:40:01,300,117,279,0.0,3.7,10.8,29.5,83.9,995.8,0.00,0,0.0,0.0,0,0.0,31.5,0.0,11.9,3.468
2009/08/02,07:50:01,299,119,296,0.1,3.7,11.5,29.3,84.0,995.9,0.00,0,0.0,0.0,0,0.0,31.0,0.0,11.7,3.468
2009/08/02,08:00:01,313,125,290,0.1,3.1,10.2,29.1,84.6,996.1,0.00,0,0.0,0.0,0,0.0,29.8,0.0,11.6,3.468
2009/08/02,08:10:01,307,120,297,0.0,3.2,9.5,29.3,83.5,996.2,0.00,0,0.0,0.0,0,0.0,30.5,0.0,11.6,3.469
2009/08/02,08:20:01,314,119,284,0.0,2.9,8.4,29.3,83.4,996.3,0.00,0,0.0,0.0,0,0.0,30.3,0.0,11.7,3.469
2009/08/02,08:30:01,317,121,299,0.1,2.8,8.8,29.5,84.0,996.4,0.00,0,0.0,0.0,0,0.0,30.8,0.0,11.7,3.468
2009/08/02,08:40:01,308,116,288,0.1,3.5,9.3,30.2,79.9,996.4,0.00,0,0.0,0.0,0,0.0,32.8,0.0,11.8,3.468
2009/08/02,08:50:01,306,116,279,0.2,3.3,9.5,30.3,79.9,996.5,0.00,0,0.0,0.0,0,0.0,33.1,0.0,11.8,3.467
2009/08/02,09:00:01,309,119,282,0.1,3.1,9.6,29.8,82.3,996.5,0.00,0,0.0,0.0,0,0.0,31.6,0.0,11.9,3.469
2009/08/02,09:10:01,300,121,290,0.1,3.3,9.8,30.1,82.0,996.5,0.00,0,0.0,0.0,0,0.0,32.1,0.0,11.9,3.468
2009/08/02,09:20:01,304,122,295,0.1,3.6,10.7,30.4,80.3,996.6,0.00,0,0.0,0.0,0,0.0,33.0,0.0,11.7,3.468
2009/08/02,09:30:01,303,119,281,0.1,3.5,11.0,30.6,77.8,996.8,0.00,0,0.0,0.0,0,0.0,34.0,0.0,11.7,3.467
2009/08/02,09:40:01,302,119,299,0.1,3.7,11.2,30.6,77.6,996.7,0.00,0,0.0,0.0,0,0.0,34.0,0.0,11.6,3.467
2009/08/02,09:50:01,307,120,290,0.1,3.6,10.9,30.8,77.5,996.8,0.00,0,0.0,0.0,0,0.0,33.8,0.0,11.6,3.467
2009/08/02,10:00:01,304,120,297,0.1,3.7,10.8,30.8,76.9,996.8,0.00,0,0.0,0.0,0,0.0,34.2,0.0,11.6,3.469
2009/08/02,10:10:01,307,123,293,0.1,3.6,9.8,30.8,78.3,996.8,0.00,0,0.0,0.0,0,0.0,34.0,0.0,11.8,3.467
2009/08/02,10:20:01,304,123,298,0.0,3.8,10.4,30.9,77.1,996.8,0.00,0,0.0,0.0,0,0.0,33.7,0.0,11.7,3.468
2009/08/02,10:30:01,307,122,296,0.2,3.8,11.3,30.6,77.3,996.8,0.00,0,0.0,0.0,0,0.0,33.8,0.0,11.8,3.467
2009/08/02,10:40:01,302,121,299,0.1,4.1,12.1,31.1,76.7,996.9,0.00,0,0.0,0.0,0,0.0,34.7,0.0,11.7,3.467
2009/08/02,10:50:01,304,121,297,0.0,3.8,10.6,31.2,75.8,996.9,0.00,0,0.0,0.0,0,0.0,35.0,0.0,11.9,3.467
2009/08/02,11:00:01,311,126,300,0.1,3.9,10.8,31.0,77.0,997.0,0.00,0,0.0,0.0,0,0.0,34.7,0.0,11.8,3.467
2009/08/02,11:10:01,308,125,289,0.1,3.8,11.6,31.4,76.9,996.9,0.00,0,0.0,0.0,0,0.0,35.0,0.0,11.9,3.467
2009/08/02,11:20:01,303,120,297,0.1,3.9,12.0,31.6,76.4,997.0,0.00,0,0.0,0.0,0,0.0,35.5,0.0,11.8,3.467
2009/08/02,11:30:01,303,121,298,0.1,3.8,11.1,31.4,74.2,997.0,0.00,0,0.0,0.0,0,0.0,35.3,0.0,12.0,3.467
2009/08/02,11:40:01,303,122,299,0.1,3.9,12.5,31.5,75.5,996.9,0.00,0,0.0,0.0,0,0.0,35.5,0.0,11.8,3.467
2009/08/02,11:50:01,300,121,296,0.1,4.0,11.5,31.4,75.6,996.8,0.00,0,0.0,0.0,0,0.0,35.5,0.0,12.0,3.467
2009/08/02,12:00:01,311,126,302,0.0,3.7,10.6,31.2,76.5,996.7,0.00,0,0.0,0.0,0,0.0,34.5,0.0,11.8,3.468
2009/08/02,12:10:01,316,132,306,0.1,4.2,11.1,31.3,75.9,996.6,0.00,0,0.0,0.0,0,0.0,34.8,0.0,11.7,3.467
2009/08/02,12:20:01,309,127,308,0.1,4.5,12.1,30.8,77.9,996.4,0.00,0,0.0,0.0,0,0.0,33.7,0.0,11.6,3.468
2009/08/02,12:30:01,301,120,300,0.1,4.4,11.5,28.8,83.4,996.4,1.29,480,4.4,0.0,0,0.0,29.6,0.0,11.7,3.469
2009/08/02,12:40:01,282,88,237,0.0,4.7,12.5,28.1,88.0,996.2,3.30,550,11.3,0.0,0,0.0,27.4,0.0,11.7,3.469
2009/08/02,12:50:01,231,49,230,0.2,4.3,12.1,28.7,89.2,996.2,0.00,10,0.0,0.0,0,0.0,28.3,0.0,11.8,3.468
2009/08/02,13:00:01,258,80,255,0.2,4.1,11.0,29.4,86.7,996.3,0.00,0,0.0,0.0,0,0.0,31.6,0.0,11.6,3.469
2009/08/02,13:10:01,282,104,282,0.4,4.4,12.7,30.1,83.3,996.3,0.00,0,0.0,0.0,0,0.0,33.1,0.0,11.8,3.468
2009/08/02,13:20:01,274,86,268,0.3,5.1,15.8,30.1,80.7,996.0,0.00,0,0.0,0.0,0,0.0,33.3,0.0,11.6,3.468
2009/08/02,13:30:01,266,72,213,0.0,5.3,12.8,29.8,76.1,995.9,0.00,0,0.0,0.0,0,0.0,32.6,0.0,11.6,3.468
2009/08/02,13:40:01,277,88,267,0.1,5.0,12.3,29.5,76.4,995.9,0.00,0,0.0,0.0,0,0.0,32.6,0.0,12.0,3.467
2009/08/02,13:50:01,271,92,267,0.2,4.4,11.0,29.5,77.6,995.8,0.00,0,0.0,0.0,0,0.0,32.0,0.0,11.9,3.468
2009/08/02,14:00:01,267,82,266,0.1,4.9,11.7,30.0,74.7,995.6,0.00,0,0.0,0.0,0,0.0,33.1,0.0,11.6,3.468
2009/08/02,14:10:01,285,105,279,0.1,4.0,11.2,30.2,76.0,995.6,0.00,0,0.0,0.0,0,0.0,33.7,0.0,11.6,3.468
2009/08/02,14:20:01,313,126,300,0.1,3.8,12.7,30.5,74.9,995.7,0.00,0,0.0,0.0,0,0.0,33.7,0.0,11.8,3.468
2009/08/02,14:30:01,311,128,309,0.1,3.6,11.0,30.8,76.0,995.5,0.00,0,0.0,0.0,0,0.0,34.7,0.0,11.8,3.465
2009/08/02,14:40:01,313,121,301,0.1,3.7,10.6,31.1,76.0,995.5,0.00,0,0.0,0.0,0,0.0,34.8,0.0,12.0,3.468